| time (UTC) | temp F | wind direction | speed knots | gust knots | rain 1hr in | rain 24hr in | rain mn in | humidity % | barometer mb |
| 20260505040849 | 68 | 227 | 2.6 | 3.5 | 0.00 | 0.00 | 0.00 | 52 | 1030.7 |
| 20260505035847 | 68 | 216 | 3.5 | 7.0 | 0.00 | 0.00 | 0.00 | 52 | 1030.7 |
| 20260505034844 | 68 | 220 | 1.7 | 3.5 | 0.00 | 0.00 | 0.00 | 52 | 1031.1 |
| 20260505033843 | 69 | 205 | 4.3 | 6.1 | 0.00 | 0.00 | 0.00 | 52 | 1031.1 |
| 20260505032849 | 69 | 220 | 3.5 | 7.0 | 0.00 | 0.00 | 0.00 | 52 | 1031.1 |
| 20260505031908 | 69 | 225 | 2.6 | 4.3 | 0.00 | 0.00 | 0.00 | 52 | 1030.9 |
| 20260505030846 | 69 | 212 | 3.5 | 7.0 | 0.00 | 0.00 | 0.00 | 52 | 1030.7 |
| 20260505025845 | 69 | 228 | 3.5 | 6.1 | 0.00 | 0.00 | 0.00 | 52 | 1030.7 |
| 20260505024853 | 69 | 232 | 4.3 | 8.7 | 0.00 | 0.00 | 0.00 | 52 | 1030.6 |
| 20260505023840 | 69 | 219 | 3.5 | 7.0 | 0.00 | 0.00 | 0.00 | 52 | 1030.4 |
| 20260505022928 | 69 | 248 | 1.7 | 3.5 | 0.00 | 0.00 | 0.00 | 52 | 1030.4 |
| 20260505021856 | 69 | 220 | 3.5 | 4.3 | 0.00 | 0.00 | 0.00 | 52 | 1030.4 |
| 20260505020834 | 69 | 243 | 3.5 | 7.0 | 0.00 | 0.00 | 0.00 | 52 | 1030.0 |
| 20260505015853 | 69 | 209 | 2.6 | 3.5 | 0.00 | 0.00 | 0.00 | 52 | 1030.0 |
| 20260505014830 | 70 | 230 | 2.6 | 6.1 | 0.00 | 0.00 | 0.00 | 52 | 1030.0 |
| 20260505013900 | 70 | 229 | 3.5 | 7.0 | 0.00 | 0.00 | 0.00 | 51 | 1029.7 |
| 20260505012827 | 70 | 227 | 3.5 | 4.3 | 0.00 | 0.00 | 0.00 | 52 | 1029.7 |
| 20260505011824 | 71 | 209 | 2.6 | 4.3 | 0.00 | 0.00 | 0.00 | 51 | 1029.7 |
| 20260505010852 | 71 | 217 | 2.6 | 6.1 | 0.00 | 0.00 | 0.00 | 50 | 1029.7 |
| 20260505005850 | 71 | 226 | 4.3 | 7.0 | 0.00 | 0.00 | 0.00 | 50 | 1029.5 |
| 20260505004818 | 72 | 216 | 2.6 | 4.3 | 0.00 | 0.00 | 0.00 | 49 | 1029.4 |
| 20260505003844 | 72 | 249 | 3.5 | 7.0 | 0.00 | 0.00 | 0.00 | 48 | 1029.6 |
| 20260505002842 | 73 | 215 | 2.6 | 6.1 | 0.00 | 0.00 | 0.00 | 48 | 1029.4 |
| 20260505001840 | 73 | 232 | 2.6 | 3.5 | 0.00 | 0.00 | 0.00 | 47 | 1029.7 |
| 20260505000859 | 74 | 209 | 4.3 | 7.0 | 0.00 | 0.00 | 0.00 | 46 | 1029.7 |
| 20260504235837 | 74 | 201 | 6.1 | 9.6 | 0.00 | 0.00 | 0.00 | 46 | 1029.7 |
| 20260504234835 | 74 | 267 | 7.0 | 13.0 | 0.00 | 0.00 | 0.00 | 46 | 1030.0 |
| 20260504233834 | 74 | 232 | 5.2 | 9.6 | 0.00 | 0.00 | 0.00 | 46 | 1030.0 |
| 20260504233012 | 75 | 222 | 6.1 | 10.4 | 0.00 | 0.00 | 0.00 | 46 | 1030.0 |
| 20260504231829 | 76 | 235 | 2.6 | 6.1 | 0.00 | 0.00 | 0.00 | 45 | 1030.0 |
| 20260504230827 | 76 | 222 | 8.7 | 10.4 | 0.00 | 0.00 | 0.00 | 45 | 1030.0 |
| 20260504225825 | 76 | 239 | 7.8 | 13.9 | 0.00 | 0.00 | 0.00 | 46 | 1030.4 |
| 20260504224903 | 75 | 232 | 6.1 | 13.0 | 0.00 | 0.00 | 0.00 | 49 | 1030.4 |
| 20260504223821 | 75 | 230 | 1.7 | 3.5 | 0.00 | 0.00 | 0.00 | 48 | 1030.4 |
| 20260504222819 | 76 | 210 | 4.3 | 7.0 | 0.00 | 0.00 | 0.00 | 48 | 1030.4 |
| 20260504221848 | 76 | 223 | 3.5 | 6.1 | 0.00 | 0.00 | 0.00 | 47 | 1030.4 |
| 20260504220845 | 76 | 242 | 2.6 | 3.5 | 0.00 | 0.00 | 0.00 | 46 | 1030.4 |
| 20260504215904 | 76 | 227 | 1.7 | 3.5 | 0.00 | 0.00 | 0.00 | 46 | 1030.4 |
| 20260504214842 | 76 | 217 | 2.6 | 6.1 | 0.00 | 0.00 | 0.00 | 46 | 1031.0 |
| 20260504213839 | 77 | 270 | 2.6 | 3.5 | 0.00 | 0.00 | 0.00 | 46 | 1031.1 |
| 20260504212838 | 78 | 215 | 3.5 | 7.0 | 0.00 | 0.00 | 0.00 | 45 | 1031.1 |
| 20260504211835 | 78 | 229 | 3.5 | 6.1 | 0.00 | 0.00 | 0.00 | 47 | 1031.4 |
| 20260504210835 | 78 | 219 | 2.6 | 4.3 | 0.00 | 0.00 | 0.00 | 47 | 1031.4 |
| 20260504205832 | 77 | 237 | 1.7 | 4.3 | 0.00 | 0.00 | 0.00 | 48 | 1031.4 |
| 20260504204851 | 76 | 233 | 4.3 | 9.6 | 0.00 | 0.00 | 0.00 | 47 | 1031.4 |
| 20260504203828 | 76 | 225 | 3.5 | 9.6 | 0.00 | 0.00 | 0.00 | 48 | 1031.7 |
| 20260504202826 | 75 | 244 | 3.5 | 6.1 | 0.00 | 0.00 | 0.00 | 49 | 1032.2 |
| 20260504201824 | 76 | 228 | 7.0 | 12.2 | 0.00 | 0.00 | 0.00 | 47 | 1031.7 |
| 20260504200822 | 77 | 243 | 7.0 | 13.0 | 0.00 | 0.00 | 0.00 | 47 | 1032.2 |
| 20260504195911 | 76 | 220 | 3.5 | 9.6 | 0.00 | 0.00 | 0.00 | 50 | 1032.2 |
| 20260504194848 | 74 | 216 | 6.1 | 9.6 | 0.00 | 0.00 | 0.00 | 51 | 1032.2 |
| 20260504193847 | 73 | 211 | 2.6 | 7.0 | 0.00 | 0.00 | 0.00 | 50 | 1032.5 |
| 20260504192843 | 71 | 250 | 2.6 | 8.7 | 0.00 | 0.00 | 0.00 | 48 | 1032.8 |
| 20260504191842 | 70 | 204 | 0.9 | 2.6 | 0.00 | 0.00 | 0.00 | 48 | 1033.1 |
| 20260504190850 | 69 | 260 | 0.9 | 2.6 | 0.00 | 0.00 | 0.00 | 47 | 1033.4 |
| 20260504185839 | 69 | 248 | 2.6 | 3.5 | 0.00 | 0.00 | 0.00 | 50 | 1033.5 |
| 20260504184836 | 69 | 195 | 2.6 | 8.7 | 0.00 | 0.00 | 0.00 | 51 | 1033.5 |
| 20260504183835 | 70 | 236 | 5.2 | 9.6 | 0.00 | 0.00 | 0.00 | 51 | 1033.2 |
| 20260504182853 | 71 | 241 | 2.6 | 7.0 | 0.00 | 0.00 | 0.00 | 52 | 1033.2 |
| 20260504181852 | 71 | 201 | 4.3 | 8.7 | 0.00 | 0.00 | 0.00 | 52 | 1033.2 |
| 20260504180828 | 72 | 202 | 7.0 | 13.9 | 0.00 | 0.00 | 0.00 | 51 | 1033.0 |
| 20260504175826 | 72 | 205 | 7.0 | 12.2 | 0.00 | 0.00 | 0.00 | 51 | 1032.6 |
| 20260504174824 | 72 | 228 | 7.0 | 15.6 | 0.00 | 0.00 | 0.00 | 51 | 1032.5 |
| 20260504173853 | 72 | 208 | 6.1 | 13.9 | 0.00 | 0.00 | 0.00 | 51 | 1032.5 |
| 20260504172850 | 71 | 232 | 2.6 | 6.1 | 0.00 | 0.00 | 0.00 | 50 | 1032.8 |
| 20260504171848 | 70 | 227 | 5.2 | 8.7 | 0.00 | 0.00 | 0.00 | 51 | 1032.8 |
| 20260504170846 | 69 | 240 | 3.5 | 7.0 | 0.00 | 0.00 | 0.00 | 51 | 1032.5 |
| 20260504150914 | 66 | 225 | 1.7 | 4.3 | 0.00 | 0.00 | 0.00 | 47 | 1033.5 |
| 20260504140841 | 63 | 241 | 4.3 | 7.0 | 0.00 | 0.00 | 0.00 | 43 | 1033.9 |
| 20260504081833 | 52 | 225 | 3.5 | 7.0 | 0.00 | 0.00 | 0.00 | 51 | 1034.9 |
| 20260504080853 | 52 | 225 | 1.7 | 3.5 | 0.00 | 0.00 | 0.00 | 52 | 1034.9 |
| 20260504045825 | 51 | 229 | 1.7 | 3.5 | 0.00 | 0.00 | 0.00 | 53 | 1036.7 |
| 20260504044822 | 51 | 223 | 1.7 | 3.5 | 0.00 | 0.00 | 0.00 | 54 | 1037.0 |
| 20260504043851 | 51 | 205 | 0.9 | 3.5 | 0.00 | 0.00 | 0.00 | 54 | 1037.0 |
| 20260504042818 | 51 | 203 | 0.0 | 2.6 | 0.00 | 0.00 | 0.00 | 54 | 1037.0 |